Location: Poughquag
(41.6090°N, 73.6820°W)
Time: 19:00:07
(UTC-04:00)

MOZHAYETS 4 - Pass Details

Date: 13 August 2024
Orbit: 650 x 668 km, 98.3° (Epoch: 15 September)

Event Time Altitude Azimuth Distance (km) Brightness Sun altitude
Rises 03:26:55 0° 133° (SE) 3,000 11.0 -24.4°
Reaches altitude 10° 03:29:28 10° 120° (ESE) 2,093 10.4 -24.1°
Maximum altitude 03:33:08 24° 66° (ENE) 1,374 9.9 -23.7°
Drops below altitude 10° 03:36:49 10° 13° (NNE) 2,107 11.1 -23.2°
Sets 03:39:22 0° 0° (N) 3,025 11.8 -22.9°
